Back to catalog

HJS-9B

AliveScienceVLEO
NORAD 68832·PAYLOAD·🇨🇳 China

Launched Apr 24, 2026 from Xichang Satellite Launch Center

Loading…

Next Passes (next 24 hours)

TLE

FreshSource: Space-Track

Epoch: Sep 14, 2026, 14:45 UTC

1 68832U 26091B   26257.61512767  .00011119  00000-0  53956-3 0  9996
2 68832  55.0046 350.9675 0006774 260.7730  99.2523 15.18981229 21798

Track HJS-9B in real time with AllMySat

Download on the App Store